Regional Weather Roundup
Issued by NWS

Home | Current Version | Previous Version | Text Only | Print | Product List | Glossary Off
Versions: 1 2 3 4 5 6 7 8 9 10 11 12 13 14 15 16 17 18 19 20 21 22 23 24 25 26 27 28 29 30 31 32 33 34 35 36 37 38 39 40 41 42 43 44 45 46 47 48 49 50

000
ASUS43 KLOT 050312
RWRIL

ILLINOIS REGIONAL WEATHER ROUNDUP
NATIONAL WEATHER SERVICE CHICAGO/ROMEOVILLE IL
1000 PM CDT TUE AUG 04 2015

NOTE: "FAIR" INDICATES FEW OR NO CLOUDS BELOW 12,000 FEET WITH NO
SIGNIFICANT WEATHER AND/OR OBSTRUCTIONS TO VISIBILITY.

* THESE STATIONS ARE NOT UNDER NWS QUALITY CONTROL. THEY ALSO MAY NOT
  REPORT WEATHER SUCH AS PRECIPITATION OR FOG.

ILZ001-002-007-009-015-016-024-050400-
NORTHWEST ILLINOIS

CITY           SKY/WX    TMP DP  RH WIND       PRES   REMARKS
MOLINE         CLEAR     69  63  81 CALM      30.02R
STERLING*      PTCLDY    70  61  73 N6        30.01
SAVANNA*       MOCLDY    65  60  83 CALM      30.03S
$$

ILZ003-004-008-010-011-017-018-050400-
NORTH CENTRAL ILLINOIS

CITY           SKY/WX    TMP DP  RH WIND       PRES   REMARKS
ROCKFORD       MOCLDY    66  56  70 S3        30.05R
FREEPORT*      MOCLDY    60  56  88 CALM      30.06R
ROCHELLE*      PTCLDY    63  59  86 CALM      30.05R
DE KALB*       PTCLDY    67  55  66 CALM      30.05R
PERU*          CLEAR     70  61  74 W3        30.04R
$$

ILZ005-006-012>014-019>023-050400-
NORTHEAST ILLINOIS

CITY           SKY/WX    TMP DP  RH WIND       PRES   REMARKS
CHICAGO-OHARE  PTCLDY    72  58  61 VRB6      30.03R
CHICAGO-MIDWAY MOCLDY    74  59  59 E7        30.02R
AURORA         PTCLDY    62  57  83 NW3       30.04R
LANSING*       PTCLDY    66  58  75 CALM      30.03R
JOLIET*        PTCLDY    65  58  79 CALM      30.03R
WAUKEGAN       PTCLDY    62  58  86 CALM      30.02R
DUPAGE AIRPORT PTCLDY    67  56  67 CALM      30.03R
KANKAKEE*      PTCLDY    67  61  79 W5        30.04R
WHEELING       PTCLDY    69  59  70 CALM      30.04R
MORRIS*        PTCLDY    67  60  77 NW3       30.02R
ROMEOVILLE*    PTCLDY    69  54  58 NW5       30.03R
NORTHERLY ISL    N/A     72  58  61 E7          N/A
$$

LMZ740>746-050400-
SOUTHERN LAKE MICHIGAN

STATION/POSITION SKY/WX   TEMP    WIND        PRES    VSBY  WAVE
                          AIR SEA DIR/SP/G                  HT/PER
                          (F)     (DEG/KT/KT) (MB)    (MI)  (FT/S)
HARRISON CRIB              72     100/  9/ 10   N/A
BURNHAM HARBOR             71     100/  4/  7   N/A
CALUMET HARBOR             72      40/  6/  7   N/A
BURNS HARBOR               73      50/ 12/ 13 1016.6R
MICHIGAN CITY              73      30/ 10/ 11   N/A
MICHIGAN CITY 6N           73 74  110/  6/  8   N/A           1/ 3
ST. JOSEPH                 72 74  170/  4/  6   N/A           1/ 2
$$

ILZ025>027-034>036-040-047-049-050-058-095>099-050400-
WEST-CENTRAL ILLINOIS

CITY           SKY/WX    TMP DP  RH WIND       PRES   REMARKS
QUINCY         CLOUDY    71  63  75 E3        30.01R
GALESBURG*     PTCLDY    65  64  93 CALM      30.04R
MACOMB*        CLOUDY    69  66  91 N5        30.04R
JACKSONVILLE*  MOCLDY    70  68  93 CALM      30.02R
PITTSFIELD*    CLOUDY    71  66  85 CALM      30.03R
$$

ILZ028>032-037-038-041>044-048-051>054-059>061-050400-
CENTRAL ILLINOIS

CITY           SKY/WX    TMP DP  RH WIND       PRES   REMARKS
PONTIAC        PTCLDY    67  64  87 CALM      30.04S
BLOOMINGTON    MOCLDY    73  65  76 CALM      30.05R
DECATUR        CLOUDY    70  64  81 NE3       30.02R
PEORIA         MOCLDY    73  63  70 CALM      30.03R
LACON*         PTCLDY    66  63  89 CALM      30.02S
LINCOLN*       MOCLDY    71  63  75 CALM      30.02R
SPRINGFIELD    CLOUDY    69  64  84 CALM      30.01R
TAYLORVILLE    CLOUDY    68  64  88 CALM      30.01R
$$

ILZ033-039-045-046-055>057-062-063-050400-
EAST-CENTRAL ILLINOIS

CITY           SKY/WX    TMP DP  RH WIND       PRES   REMARKS
CHAMPAIGN      MOCLDY    70  64  81 NW3       30.03R
DANVILLE*      MOCLDY    66  65  96 CALM      30.00S
RANTOUL*       MOCLDY    71  64  79 NW3       30.03R
MATTOON        MOCLDY    70  65  84 CALM      30.00S
PARIS*         MOCLDY    67  65  92 CALM      30.03R
$$

ILZ079-100>102-050400-
SOUTHWEST ILLINOIS

CITY           SKY/WX    TMP DP  RH WIND       PRES   REMARKS
ALTON          MOCLDY    75  70  83 NE6       29.98S
BELLEVILLE     CLEAR     77  74  92 N2        29.97S
CAHOKIA*       CLOUDY    79  72  79 CALM      29.98R HX  82
SPARTA*        CLOUDY    75  71  88 E5        29.99S
$$

ILZ064>066-069>071-074>076-080>082-084>086-088>090-092>094-050400-
SOUTH-CENTRAL ILLINOIS

CITY           SKY/WX    TMP DP  RH WIND       PRES   REMARKS
CARBONDALE     CLOUDY    75  67  76 SE6       29.98S
CAIRO*         CLOUDY    78  71  78 CALM      29.99S HX  80
EFFINGHAM*     MOCLDY    70  66  88 CALM      30.01S
MARION         CLOUDY    75  68  78 CALM      29.99S
MT. VERNON     CLOUDY    70  64  83 NE5       30.01R
CENTRALIA*     CLOUDY    72  67  84 E3        29.99F
SALEM*         CLOUDY    75  69  80 CALM      30.00S
METROPOLIS*    CLOUDY    76  71  83 CALM      30.00S
$$

ILZ067-068-072-073-078-083-087-091-050400-
SOUTHEAST ILLINOIS

CITY           SKY/WX    TMP DP  RH WIND       PRES   REMARKS
LAWRENCEVILLE  MOCLDY    72  68  87 CALM      30.00R
FLORA*         MOCLDY    74  68  82 CALM      30.00S
FAIRFIELD*     CLOUDY    70  70  99 CALM      29.99S FOG
HARRISBURG*    CLOUDY    72  71  98 CALM      30.00R
ROBINSON*      MOCLDY    68  67  96 CALM      30.01S
CARMI*         CLOUDY    69  65  86 CALM      29.99S
$$

ABBREVIATIONS USED IN REMARKS
   TC - TEMPERATURE IN CELSIUS
  WCI - WIND CHILL INDEX
   HX - HEAT INDEX
  VSB - VISIBILITY
$$



USA.gov is the U.S. government's official web portal to all federal, state and local government web resources and services.